Time,TemperatureF,DewpointF,PressureIn,WindDirection,WindDirectionDegrees,WindSpeedMPH,WindSpeedGustMPH,Humidity,HourlyPrecipIn,Conditions,Clouds,dailyrainin,SoftwareType,DateUTC
2013-01-26 01:02:00,38.0,-99.9,-100.00,ENE,60,0.0,3.0,-999,-99.99,,,-99.99,,2013-01-26 09:02:00,
2013-01-26 01:11:00,38.0,-99.9,-100.00,ENE,60,0.0,3.0,-999,-99.99,,,-99.99,,2013-01-26 09:11:00,
2013-01-26 03:02:00,37.0,-99.9,-100.00,ESE,110,3.0,7.0,-999,-99.99,,,-99.99,,2013-01-26 11:02:00,
2013-01-26 03:12:00,37.0,-99.9,-100.00,ESE,110,3.0,7.0,-999,-99.99,,,-99.99,,2013-01-26 11:12:00,
2013-01-26 05:04:00,37.0,-99.9,-100.00,East,85,2.0,7.0,-999,-99.99,,,-99.99,,2013-01-26 13:04:00,
2013-01-26 05:12:00,37.0,-99.9,-100.00,East,85,2.0,7.0,-999,-99.99,,,-99.99,,2013-01-26 13:12:00,
2013-01-26 07:03:00,37.0,-99.9,-100.00,ENE,75,3.0,7.0,-999,-99.99,,,-99.99,,2013-01-26 15:03:00,
2013-01-26 07:12:00,37.0,-99.9,-100.00,ENE,75,3.0,7.0,-999,-99.99,,,-99.99,,2013-01-26 15:12:00,
2013-01-26 09:03:00,37.0,-99.9,-100.00,East,100,5.0,7.0,-999,-99.99,,,-99.99,,2013-01-26 17:03:00,
2013-01-26 09:13:00,37.0,-99.9,-100.00,East,100,5.0,7.0,-999,-99.99,,,-99.99,,2013-01-26 17:13:00,
2013-01-26 11:03:00,38.0,-99.9,-100.00,ESE,105,3.0,7.0,-999,-99.99,,,-99.99,,2013-01-26 19:03:00,
2013-01-26 11:12:00,38.0,-99.9,-100.00,ESE,105,3.0,7.0,-999,-99.99,,,-99.99,,2013-01-26 19:12:00,
2013-01-26 13:03:00,39.0,-99.9,-100.00,ENE,75,3.0,6.0,-999,-99.99,,,-99.99,,2013-01-26 21:03:00,
2013-01-26 13:12:00,39.0,-99.9,-100.00,ENE,75,3.0,6.0,-999,-99.99,,,-99.99,,2013-01-26 21:12:00,
2013-01-26 15:01:00,40.0,39.0,-100.00,West,270,1.0,2.0,96,-99.99,,,-99.99,,2013-01-26 23:01:00,
2013-01-26 15:11:00,40.0,39.0,-100.00,West,270,1.0,2.0,96,-99.99,,,-99.99,,2013-01-26 23:11:00,
2013-01-26 17:01:00,41.0,40.0,-100.00,SE,125,1.0,2.0,96,-99.99,,,-99.99,,2013-01-27 01:01:00,
2013-01-26 17:11:00,41.0,40.0,-100.00,SE,125,1.0,2.0,96,-99.99,,,-99.99,,2013-01-27 01:11:00,
2013-01-26 19:02:00,39.0,39.0,-100.00,ESE,120,0.0,1.0,100,-99.99,,,-99.99,,2013-01-27 03:02:00,
2013-01-26 19:11:00,39.0,39.0,-100.00,ESE,120,0.0,1.0,100,-99.99,,,-99.99,,2013-01-27 03:11:00,
2013-01-26 21:03:00,39.0,39.0,-100.00,NNW,330,0.0,1.0,100,-99.99,,,-99.99,,2013-01-27 05:03:00,
2013-01-26 21:12:00,39.0,39.0,-100.00,NNW,330,0.0,1.0,100,-99.99,,,-99.99,,2013-01-27 05:12:00,
2013-01-26 23:02:00,39.0,-99.9,-100.00,ESE,120,1.0,2.0,-999,-99.99,,,-99.99,,2013-01-27 07:02:00,
2013-01-26 23:14:00,39.0,-99.9,-100.00,ESE,120,1.0,2.0,-999,-99.99,,,-99.99,,2013-01-27 07:14:00,